Location: Unspecified
(0.0000°N, 0.0000°E)
Time: 23:52:15
(UTC+00:00)

GONETS M 08 (M18) - Pass Details

Date: 19 May 2026
Orbit: 1470 x 1518 km, 82.5° (Epoch: 7 June)

Event Time Altitude Azimuth Distance (km) Brightness Sun altitude
Rises 05:21:14 0° 176° (S) 4,640 ? -8.3°
Reaches altitude 10° 05:24:11 10° 173° (S) 3,663 ? -7.6°
Maximum altitude 05:32:53 63° 93° (E) 1,658 ? -5.6°
Drops below altitude 10° 05:41:36 10° 14° (NNE) 3,671 ? -3.5°
Sets 05:44:32 0° 11° (N) 4,650 ? -2.8°
